Wind_Speed
7 8 9 10 10 9 9 9 10 10 10 9 9 9 8 8 7 7 6 5 5 5 5 3 2 3 4 4 4 4 5 5 6 6 5 5 4 5 5 5 5 5 5
6 7 9 9 9 9 9 9 9 9 10 9 9 8 8 8 8 8 6 5 6 5 5 4 3 4 4 4 5 5 6 6 6 6 6 5 4 5 5 6 6 6 7
5 6 7 8 9 8 8 8 8 8 9 9 9 9 9 8 8 8 7 7 6 6 6 6 5 5 5 5 5 6 7 6 6 6 6 5 5 5 6 6 6 6 6
5 6 6 7 7 8 8 8 7 8 9 9 9 9 9 9 9 9 8 8 7 7 6 6 5 6 6 6 6 6 6 7 6 6 6 6 6 7 7 6 6 6 6
6 5 6 6 7 8 7 8 8 7 8 9 10 10 10 10 10 10 9 8 7 7 7 7 6 5 6 6 6 6 7 7 7 7 7 8 8 8 7 6 6 6 7
5 5 6 6 6 7 7 7 8 8 8 9 10 10 10 10 10 10 10 9 8 8 7 6 6 6 6 7 7 7 6 7 8 8 9 9 8 9 8 8 7 7 7
5 6 6 6 6 7 8 8 9 9 9 9 10 10 10 10 11 11 10 10 10 9 8 7 6 6 7 8 8 8 8 8 9 9 10 10 9 9 9 9 8 8 8
6 6 7 7 7 7 8 9 10 9 9 10 11 11 11 11 11 11 11 11 10 10 8 8 8 8 8 8 9 9 9 10 11 11 11 11 11 10 10 10 10 10 10
7 7 8 8 8 8 9 9 10 11 11 11 12 12 12 13 12 12 12 12 12 11 10 10 10 10 10 10 10 11 11 11 11 11 12 12 12 11 11 11 11 11 12
7 9 10 10 10 10 11 10 11 11 12 13 12 12 12 13 13 13 13 13 12 12 12 11 11 11 11 11 11 12 12 12 11 12 13 13 12 11 12 13 13 13 13
10 10 11 11 11 12 13 12 12 12 13 14 14 13 14 14 14 15 15 14 14 14 13 13 13 13 12 12 12 12 12 12 12 13 13 13 13 13 13 14 14 14 14
12 12 13 14 14 15 15 14 14 14 15 15 15 15 16 16 16 16 16 16 16 15 15 15 14 14 14 14 13 13 13 13 14 14 13 13 13 14 14 15 15 15 15
15 16 17 17 16 16 17 16 16 16 17 17 17 17 17 18 18 18 18 18 18 17 17 16 15 15 14 15 15 15 15 15 15 15 15 15 14 15 15 15 16 16 17
16 17 18 18 17 18 18 18 18 18 18 19 20 19 19 20 20 20 20 20 20 19 19 18 17 17 16 16 17 17 17 16 16 16 16 15 15 16 16 17 17 18 18
18 19 19 19 19 20 20 21 20 20 20 21 22 22 22 22 22 22 22 21 21 21 21 21 20 19 19 19 19 18 18 18 18 18 18 18 18 17 18 18 19 19 19
20 21 21 21 22 22 22 22 22 22 23 23 23 23 23 23 23 23 23 22 22 21 22 22 22 21 20 20 20 20 19 19 19 20 20 20 20 19 20 20 20 21 21
23 23 23 23 24 24 24 25 25 25 25 25 25 25 24 24 25 24 24 24 24 23 23 24 24 23 23 22 21 21 21 21 21 20 21 21 21 21 21 21 21 22 23
25 25 26 26 25 26 26 27 27 27 27 27 27 26 26 26 26 26 26 26 25 25 25 24 24 24 23 23 23 23 23 23 22 22 22 22 22 22 22 22 22 24 24
26 27 28 28 28 28 27 28 28 28 28 28 28 28 28 27 27 27 27 27 27 27 26 26 25 25 25 25 25 25 25 25 24 24 24 24 24 24 24 24 24 25 25
27 27 28 28 29 29 29 29 30 30 30 29 29 29 29 28 28 28 28 28 28 28 28 28 27 26 26 26 27 27 28 27 27 26 26 26 26 26 26 26 26 27 27
29 29 30 30 30 30 30 30 30 30 30 29 29 29 29 29 29 29 29 29 29 29 29 29 28 28 28 28 28 28 29 28 28 28 27 27 27 28 28 28 29 30 30
30 30 30 30 31 31 30 30 31 30 31 30 30 30 30 30 30 30 30 30 29 29 29 29 29 29 28 29 29 30 30 30 29 28 28 28 29 29 29 30 30 31 31
30 30 30 31 31 32 32 32 32 31 31 31 31 31 31 31 31 31 31 30 30 30 30 29 29 30 30 30 30 30 29 29 30 29 29 30 30 30 31 31 32 33 33
31 31 32 32 32 33 33 33 32 31 31 31 30 30 30 30 30 31 30 30 30 30 30 30 30 30 30 30 30 31 31 30 30 31 31 31 31 32 33 34 34 34 34
32 32 32 33 33 33 33 33 33 33 31 30 30 30 30 29 30 30 30 30 31 31 31 30 30 31 31 31 31 31 31 31 31 31 32 32 33 34 34 35 36 35 35
32 32 33 33 33 33 32 32 33 33 32 31 30 30 30 29 29 30 29 29 30 31 31 31 31 31 31 31 31 31 31 31 31 32 32 33 34 34 35 35 35 35 35
Wind_Direction
40 40 39 40 41 44 48 49 48 45 40 37 33 30 25 20 14 9 6 4 1 357 339 332 303 284 275 278 278 280 284 288 289 287 286 277 272 273 277 276 273 276 274
38 36 36 39 37 42 43 41 45 41 34 30 27 24 18 12 8 5 360 355 352 350 349 335 316 302 292 284 281 277 280 278 281 288 285 270 272 279 283 275 276 281 272
25 28 29 34 32 35 37 37 36 33 30 27 23 19 14 7 3 0 355 343 342 339 333 318 303 298 297 294 285 280 278 275 283 283 283 276 268 281 290 287 282 279 276
18 23 21 24 28 27 28 27 25 23 20 17 14 12 9 4 1 354 349 343 335 332 327 318 311 303 296 292 284 282 278 277 276 279 274 276 278 280 290 285 286 280 278
4 18 17 15 19 19 20 22 20 15 12 9 7 4 1 359 357 353 348 342 335 331 323 317 317 308 297 293 285 282 275 277 279 277 276 277 280 280 280 282 281 280 283
352 2 9 9 11 11 13 14 8 7 2 1 360 357 355 353 350 347 343 339 333 327 326 317 309 305 298 291 287 288 281 282 280 278 280 278 278 278 278 278 278 280 280
343 350 353 357 359 358 358 359 355 354 353 351 350 348 346 344 341 336 335 332 331 326 323 315 310 303 299 295 287 285 278 281 281 279 278 277 280 281 275 274 274 280 282
327 333 341 342 343 345 344 344 343 344 343 340 340 337 335 333 332 331 331 328 325 321 319 317 311 305 301 298 292 288 284 283 282 279 275 272 275 277 273 272 272 277 282
326 328 335 334 327 328 330 333 332 331 334 332 332 331 331 331 330 328 328 328 324 319 316 315 312 308 302 299 293 290 291 286 282 278 274 272 274 272 271 271 274 277 279
324 326 327 328 321 323 325 322 323 324 328 329 326 325 326 329 329 326 323 320 319 317 315 308 304 303 302 302 296 292 290 290 288 283 274 272 272 272 270 270 274 277 279
314 315 318 321 322 321 319 316 316 317 319 321 320 319 320 320 319 320 319 318 316 314 311 307 303 299 298 298 298 294 290 288 289 290 285 278 272 272 271 271 271 273 278
305 310 312 313 313 314 314 312 313 313 313 315 314 313 314 313 314 313 311 311 311 310 307 304 304 301 295 293 292 289 287 287 287 283 284 283 277 276 275 271 270 272 275
297 301 302 304 308 310 308 307 309 311 309 310 310 308 308 309 310 308 307 304 303 302 300 297 297 298 294 289 288 286 286 285 285 282 283 282 279 276 275 273 272 272 275
292 297 298 299 303 306 307 304 307 306 306 307 306 305 303 305 306 306 304 302 301 300 299 296 292 290 290 288 286 286 284 284 284 284 283 282 279 278 276 276 274 273 276
291 295 296 297 298 300 303 303 302 303 303 304 302 302 301 301 301 301 301 301 299 300 297 295 293 290 287 286 285 285 284 283 284 284 282 282 281 281 279 278 276 275 277
290 293 295 295 295 297 299 301 300 302 301 301 300 299 298 298 297 296 297 298 298 297 295 293 293 290 288 286 282 280 279 281 282 282 280 279 279 279 280 280 279 277 278
288 290 292 292 292 295 296 297 298 299 299 299 298 296 295 294 295 295 294 294 295 295 294 293 290 287 284 283 282 281 279 279 280 282 281 280 278 277 278 278 279 279 279
284 285 287 288 290 293 294 294 296 297 296 297 297 295 292 291 291 290 289 290 291 292 291 291 289 287 283 280 280 280 278 279 280 281 282 281 278 277 276 278 279 280 281
280 282 286 289 291 294 295 295 295 296 295 296 295 293 292 292 291 289 288 288 288 288 289 288 287 285 283 280 279 279 279 278 279 279 280 280 277 276 276 277 279 281 281
280 283 287 290 291 292 294 295 297 297 297 295 295 291 290 290 290 289 290 289 287 286 286 285 283 282 282 281 280 278 277 277 278 277 278 278 276 275 275 276 278 279 280
281 284 286 289 290 291 293 294 296 296 296 295 294 291 289 290 290 289 289 289 288 287 285 282 280 279 280 281 281 279 277 278 277 276 276 276 276 275 277 278 278 279 280
280 283 286 289 291 293 294 295 295 294 294 295 294 291 291 289 288 289 289 288 288 287 285 282 280 279 279 279 280 280 280 277 276 276 275 275 275 274 276 278 279 279 281
279 282 285 288 291 293 295 294 294 293 294 295 294 292 291 289 288 288 287 286 286 285 285 283 281 279 278 278 280 280 279 277 276 276 275 275 275 276 276 277 279 280 281
279 282 285 287 289 292 294 296 294 294 295 295 294 293 292 290 289 289 288 285 284 283 283 283 282 280 279 278 278 281 279 277 276 276 276 276 276 277 278 278 279 281 282
280 282 284 286 288 290 294 295 296 295 295 295 294 294 294 292 290 289 289 287 286 285 283 282 281 280 279 279 278 280 280 279 276 275 276 277 277 279 279 280 281 282 283
281 282 284 285 287 289 291 293 295 295 295 295 295 295 295 293 291 290 290 289 287 286 285 283 282 281 281 281 280 280 279 278 276 275 274 275 276 277 278 279 280 281 281
Height
5904 5903 5902 5900 5899 5897 5896 5895 5894 5893 5891 5890 5889 5888 5886 5885 5884 5882 5881 5880 5880 5879 5878 5877 5877 5877 5877 5877 5877 5876 5876 5876 5875 5875 5874 5874 5873 5873 5872 5872 5872 5872 5871
5905 5904 5903 5901 5900 5898 5897 5896 5895 5894 5892 5891 5890 5888 5887 5886 5884 5882 5881 5880 5879 5878 5877 5877 5876 5876 5875 5875 5875 5875 5875 5874 5874 5874 5873 5872 5873 5872 5871 5871 5870 5870 5870
5906 5905 5903 5902 5900 5899 5898 5897 5895 5894 5893 5891 5890 5888 5887 5886 5884 5883 5881 5880 5879 5878 5877 5876 5875 5875 5874 5874 5874 5874 5873 5873 5872 5872 5872 5871 5871 5871 5871 5870 5869 5869 5868
5906 5905 5904 5902 5901 5899 5898 5897 5896 5894 5893 5891 5890 5889 5887 5885 5884 5882 5881 5879 5878 5877 5876 5875 5874 5873 5873 5873 5872 5872 5871 5871 5871 5870 5870 5870 5870 5870 5869 5869 5868 5868 5867
5906 5905 5904 5903 5901 5900 5898 5897 5896 5895 5893 5892 5890 5889 5887 5885 5884 5882 5880 5879 5877 5876 5875 5874 5873 5872 5872 5871 5871 5870 5870 5870 5869 5869 5869 5868 5868 5868 5867 5868 5867 5867 5866
5906 5905 5904 5902 5901 5900 5898 5897 5896 5895 5893 5892 5890 5889 5887 5885 5883 5882 5880 5878 5877 5875 5874 5872 5871 5871 5870 5870 5869 5869 5868 5868 5868 5867 5867 5866 5866 5866 5866 5866 5865 5865 5865
5906 5905 5904 5902 5901 5900 5898 5897 5896 5894 5893 5891 5890 5888 5886 5885 5883 5881 5879 5877 5876 5874 5873 5871 5870 5870 5869 5868 5868 5867 5867 5866 5866 5865 5865 5864 5864 5863 5863 5863 5863 5863 5863
5905 5904 5903 5902 5900 5899 5898 5896 5895 5894 5892 5890 5889 5887 5885 5883 5882 5880 5878 5876 5874 5873 5871 5870 5869 5868 5867 5866 5866 5865 5865 5864 5863 5863 5862 5861 5861 5861 5861 5861 5861 5861 5861
5905 5904 5903 5901 5899 5898 5897 5895 5894 5892 5891 5889 5888 5886 5884 5882 5880 5878 5877 5875 5873 5871 5870 5868 5867 5866 5865 5864 5863 5863 5862 5862 5861 5860 5860 5859 5859 5858 5858 5858 5858 5858 5858
5904 5903 5902 5900 5899 5897 5895 5894 5893 5891 5889 5888 5886 5884 5882 5881 5879 5877 5875 5873 5871 5870 5868 5866 5865 5864 5863 5862 5861 5860 5859 5859 5858 5858 5857 5856 5856 5856 5855 5855 5855 5855 5855
5903 5901 5900 5899 5897 5895 5894 5892 5890 5889 5887 5886 5884 5882 5880 5879 5877 5875 5873 5871 5869 5867 5865 5864 5863 5861 5860 5859 5858 5857 5857 5856 5855 5855 5854 5853 5853 5852 5852 5852 5852 5851 5851
5900 5899 5898 5897 5895 5893 5891 5889 5888 5886 5884 5883 5881 5879 5877 5875 5873 5872 5870 5868 5866 5864 5863 5861 5859 5858 5857 5856 5855 5854 5854 5853 5852 5851 5850 5850 5849 5849 5848 5848 5848 5847 5847
5897 5896 5895 5893 5892 5890 5889 5887 5885 5883 5881 5879 5877 5875 5874 5872 5870 5868 5866 5864 5862 5861 5859 5857 5856 5855 5853 5852 5851 5851 5850 5849 5848 5848 5847 5846 5845 5845 5844 5844 5844 5843 5843
5894 5893 5891 5890 5888 5887 5885 5884 5881 5879 5877 5875 5873 5871 5869 5867 5865 5863 5862 5860 5858 5856 5854 5853 5851 5850 5849 5848 5847 5846 5845 5845 5844 5843 5843 5842 5841 5840 5840 5839 5839 5839 5838
5890 5888 5887 5885 5884 5882 5881 5879 5877 5875 5873 5870 5868 5866 5864 5862 5860 5858 5856 5855 5853 5851 5850 5848 5846 5845 5844 5843 5842 5841 5841 5840 5839 5838 5838 5837 5836 5836 5835 5834 5834 5833 5833
5885 5883 5882 5880 5879 5877 5875 5874 5872 5870 5867 5865 5863 5860 5858 5856 5854 5853 5851 5849 5847 5846 5844 5842 5841 5839 5838 5838 5837 5836 5835 5834 5833 5833 5832 5831 5831 5830 5830 5829 5828 5827 5827
5879 5877 5876 5874 5873 5871 5869 5867 5865 5863 5861 5859 5857 5854 5852 5850 5848 5846 5845 5843 5841 5840 5838 5836 5835 5834 5833 5832 5831 5830 5829 5828 5828 5827 5826 5826 5825 5824 5824 5823 5822 5821 5821
5872 5871 5869 5868 5866 5865 5862 5861 5859 5856 5854 5852 5850 5847 5845 5844 5842 5840 5838 5837 5835 5833 5832 5830 5829 5827 5826 5825 5824 5824 5823 5822 5822 5821 5820 5819 5819 5818 5817 5816 5816 5815 5814
5865 5864 5862 5861 5859 5857 5855 5853 5851 5849 5847 5844 5842 5840 5838 5836 5834 5833 5831 5829 5827 5826 5824 5823 5821 5820 5819 5818 5817 5816 5815 5815 5814 5814 5813 5812 5812 5811 5810 5809 5809 5808 5807
5858 5856 5855 5853 5852 5850 5848 5845 5843 5841 5838 5836 5834 5831 5829 5828 5827 5825 5823 5821 5819 5818 5816 5815 5813 5812 5811 5810 5809 5808 5808 5807 5807 5806 5805 5804 5804 5803 5802 5801 5801 5800 5799
5850 5849 5847 5846 5844 5842 5840 5837 5835 5832 5829 5827 5825 5823 5821 5819 5817 5816 5814 5812 5811 5809 5808 5806 5805 5804 5803 5802 5801 5800 5799 5799 5798 5798 5797 5796 5795 5795 5794 5793 5793 5792 5791
5842 5841 5839 5838 5835 5833 5831 5829 5826 5823 5821 5818 5816 5814 5812 5810 5808 5807 5805 5803 5802 5800 5799 5797 5796 5795 5794 5794 5792 5791 5790 5789 5789 5789 5788 5787 5787 5786 5785 5784 5784 5783 5781
5834 5833 5831 5829 5827 5825 5823 5820 5817 5814 5811 5809 5806 5804 5802 5800 5798 5797 5795 5794 5792 5791 5790 5788 5787 5786 5785 5784 5783 5782 5781 5780 5780 5780 5779 5778 5777 5777 5776 5775 5774 5773 5772
5825 5824 5822 5821 5819 5817 5814 5811 5808 5805 5803 5800 5797 5795 5793 5791 5789 5787 5785 5784 5782 5781 5780 5779 5778 5777 5776 5774 5773 5772 5771 5770 5770 5770 5769 5769 5768 5767 5766 5765 5764 5763 5762
5816 5815 5813 5812 5810 5808 5805 5803 5799 5797 5794 5791 5789 5786 5784 5782 5780 5778 5776 5774 5773 5771 5770 5769 5768 5767 5766 5765 5763 5762 5761 5760 5760 5760 5760 5759 5758 5757 5756 5755 5753 5752 5751
5807 5805 5804 5802 5800 5798 5796 5793 5790 5788 5785 5783 5781 5778 5776 5773 5772 5770 5768 5765 5764 5762 5761 5759 5758 5757 5756 5755 5754 5752 5751 5750 5750 5749 5749 5748 5747 5747 5746 5744 5743 5741 5740